Pompano Beach, FL

1:29 AM EDT on April 20, 2018 (GMT -0400)
Pompano Beach

Weather History for KPMP - September, 2013

Change the Weather History Date:

Monday, September 9, 2013

  Actual Average Record
Temperature  
Mean Temperature 82 °F -  
Max Temperature 90 °F 91 °F 96 °F (1987)
Min Temperature 75 °F 73 °F 68 °F (1978)
Cooling Degree Days 16    
Growing Degree Days 32 (Base 50)    
Moisture  
Dew Point 73 °F    
Average Humidity 75    
Maximum Humidity 90    
Minimum Humidity 63    
Precipitation  
Precipitation 0.35 in - - ()
Sea Level Pressure  
Sea Level Pressure 29.97 in    
Wind  
Wind Speed 7 mph (ENE)    
Max Wind Speed 16 mph    
Max Gust Speed 28 mph    
Visibility 9 miles    
Events Rain    
Averages and records for this station are not official NWS values.
T = Trace of Precipitation, MM = Missing Value Source: NWS Daily Summary

Daily Weather History Graph

Daily Weather History Graph

Search for Another Location

Airport or City:

Astronomy

Sep. 09, 2013 Rise Set
Actual Time 7:03 AM EDT 7:31 PM EDT
Civil Twilight 6:40 AM EDT 7:54 PM EDT
Nautical Twilight 6:13 AM EDT 8:21 PM EDT
Astronomical Twilight 5:45 AM EDT 8:48 PM EDT
Moon 10:54 AM EDT (9/9) 10:17 PM EDT (9/9)
Length of Visible Light 13h 13m
Length of Day
12h 27m
Waxing Crescent, 19% of the Moon is Illuminated
Sep 9
Waxing Crescent
Sep 12
First Quarter
Sep 19
Full
Sep 26
Last Quarter
Oct 4
New

Hourly Weather History & Observations

Time (EDT) Temp. Heat Index Dew Point Humidity Pressure Visibility Wind Dir Wind Speed Gust Speed Precip Events Conditions
12:53 AM 78.1 °F - 75.0 °F 90% 29.96 in 10.0 mi NNW 4.6 mph - N/A   Unknown
1:53 AM 78.1 °F - 73.9 °F 87% 29.94 in 10.0 mi North 4.6 mph - N/A   Unknown
2:53 AM 78.1 °F - 73.0 °F 84% 29.92 in 10.0 mi NNW 5.8 mph - N/A   Unknown
3:53 AM 77.0 °F - 72.0 °F 84% 29.92 in 10.0 mi ENE 5.8 mph - N/A   Unknown
4:53 AM 78.1 °F - 72.0 °F 81% 29.91 in 10.0 mi NE 3.5 mph - 0.00 in   Unknown
5:53 AM 75.9 °F - 72.0 °F 87% 29.92 in 10.0 mi Calm Calm - N/A   Unknown
6:53 AM 75.9 °F - 71.1 °F 85% 29.94 in 10.0 mi Calm Calm - N/A   Unknown
7:53 AM 78.1 °F - 73.0 °F 84% 29.96 in 10.0 mi NNW 4.6 mph - N/A   Partly Cloudy
8:53 AM 84.0 °F 91.2 °F 73.9 °F 72% 29.97 in 10.0 mi ENE 8.1 mph - N/A   Partly Cloudy
9:53 AM 86.0 °F 93.8 °F 73.9 °F 67% 29.99 in 10.0 mi ENE 8.1 mph - N/A   Unknown
10:53 AM 86.0 °F 93.0 °F 73.0 °F 65% 30.01 in 10.0 mi East 9.2 mph - N/A   Scattered Clouds
11:53 AM 87.1 °F 95.4 °F 73.9 °F 65% 30.00 in 10.0 mi East 10.4 mph - N/A   Scattered Clouds
12:53 PM 88.0 °F 96.5 °F 73.9 °F 63% 29.99 in 10.0 mi East 12.7 mph - 0.01 in   Scattered Clouds
1:53 PM - - - N/A% - - East 11.5 mph - N/A   Scattered Clouds
2:53 PM 87.1 °F 96.3 °F 75.0 °F 67% 29.96 in 10.0 mi East 11.5 mph - N/A   Unknown
3:53 PM 87.1 °F 94.5 °F 73.0 °F 63% 29.96 in 10.0 mi East 11.5 mph - N/A   Unknown
4:53 PM 86.0 °F 93.0 °F 73.0 °F 65% 29.95 in 10.0 mi East 11.5 mph - N/A   Unknown
5:53 PM 84.9 °F 91.4 °F 73.0 °F 67% 29.95 in 10.0 mi East 11.5 mph - N/A   Unknown
6:53 PM 84.0 °F 89.6 °F 72.0 °F 67% 29.96 in 10.0 mi East 11.5 mph - N/A   Unknown
7:53 PM 84.0 °F 89.6 °F 72.0 °F 67% 29.97 in 10.0 mi East 11.5 mph - N/A   Unknown
8:53 PM 82.9 °F 88.0 °F 72.0 °F 69% 29.99 in 10.0 mi East 11.5 mph - N/A   Unknown
9:53 PM 82.9 °F 88.8 °F 73.0 °F 72% 30.00 in 10.0 mi East 11.5 mph - N/A   Unknown
10:53 PM 82.0 °F 87.9 °F 73.9 °F 76% 30.00 in 10.0 mi East 11.5 mph - N/A   Unknown
11:06 PM 77.0 °F - 71.6 °F 83% 30.01 in 1.8 mi ENE 16.1 mph 27.6 mph 0.14 in Rain Heavy Rain
11:22 PM 78.8 °F - 71.6 °F 78% 30.00 in 3.0 mi Calm Calm - 0.34 in Rain Light Rain
11:53 PM 78.1 °F - 73.9 °F 87% 29.99 in 10.0 mi Calm Calm - 0.34 in   Unknown